Location: Burgberg
(50.1428°N, 11.0671°E)
Time: 09:13:37
(UTC+00:00)

Iridium 96 - Pass Details

Date: 26 January 2020
Orbit: 262 x 424 km, 86.4° (Epoch: 17 February)

Event Time Altitude Azimuth Distance (km) Brightness Sun altitude
Rises 06:03:16 0° 194° (SSW) 1,981 7.7 -8.9°
Reaches altitude 10° 06:05:13 10° 202° (SSW) 1,139 6.4 -8.6°
Maximum altitude 06:07:33 42° 276° (W) 415 3.8 -8.3°
Drops below altitude 10° 06:09:48 10° 351° (N) 1,104 6.1 -7.9°
Sets 06:11:40 0° 359° (N) 1,907 7.4 -7.7°
